owner,sensor,date,latitude,longitude,air_temperature,qcFlag 
DISL,ioos:station:DISL:CATA:1,2018-07-01T00:00:00Z,30.3085,-88.1395,28.8,11111222 
DISL,ioos:station:DISL:CATA:1,2018-07-01T00:30:00Z,30.3085,-88.1395,28.4,11111222 
DISL,ioos:station:DISL:CATA:1,2018-07-01T00:40:00Z,30.3085,-88.1395,28.17,1111122 
DISL,ioos:station:DISL:CATA:1,2018-07-01T01:00:00Z,30.3085,-88.1395,27.6,11111222 
DISL,ioos:station:DISL:CATA:1,2018-07-01T01:30:00Z,30.3085,-88.1395,26.9,11111222 
DISL,ioos:station:DISL:CATA:1,2018-07-01T01:40:00Z,30.3085,-88.1395,27.01,1111122 
DISL,ioos:station:DISL:CATA:1,2018-07-01T02:00:00Z,30.3085,-88.1395,26.7,11111222 
DISL,ioos:station:DISL:CATA:1,2018-07-01T02:30:00Z,30.3085,-88.1395,26.5,11111222 
DISL,ioos:station:DISL:CATA:1,2018-07-01T02:40:00Z,30.3085,-88.1395,26.44,1111122 
DISL,ioos:station:DISL:CATA:1,2018-07-01T03:00:00Z,30.3085,-88.1395,26.6,11111222 
DISL,ioos:station:DISL:CATA:1,2018-07-01T03:30:00Z,30.3085,-88.1395,26.2,11111222 
DISL,ioos:station:DISL:CATA:1,2018-07-01T03:40:00Z,30.3085,-88.1395,26.33,1111122 
DISL,ioos:station:DISL:CATA:1,2018-07-01T04:00:00Z,30.3085,-88.1395,26.0,11111222 
DISL,ioos:station:DISL:CATA:1,2018-07-01T04:30:00Z,30.3085,-88.1395,26.6,11111222 
DISL,ioos:station:DISL:CATA:1,2018-07-01T04:40:00Z,30.3085,-88.1395,26.75,1111122 
DISL,ioos:station:DISL:CATA:1,2018-07-01T05:00:00Z,30.3085,-88.1395,27.1,11111222 
DISL,ioos:station:DISL:CATA:1,2018-07-01T05:30:00Z,30.3085,-88.1395,26.4,11111222 
DISL,ioos:station:DISL:CATA:1,2018-07-01T05:40:00Z,30.3085,-88.1395,26.48,1111122 
DISL,ioos:station:DISL:CATA:1,2018-07-01T06:30:00Z,30.3085,-88.1395,27.2,11111222 
DISL,ioos:station:DISL:CATA:1,2018-07-01T06:40:00Z,30.3085,-88.1395,27.4,1111122 
DISL,ioos:station:DISL:CATA:1,2018-07-01T07:00:00Z,30.3085,-88.1395,27.0,11111222 
DISL,ioos:station:DISL:CATA:1,2018-07-01T07:30:00Z,30.3085,-88.1395,24.9,11111222 
DISL,ioos:station:DISL:CATA:1,2018-07-01T07:40:00Z,30.3085,-88.1395,25.03,1111122 
DISL,ioos:station:DISL:CATA:1,2018-07-01T08:00:00Z,30.3085,-88.1395,25.3,11111222 
DISL,ioos:station:DISL:CATA:1,2018-07-01T08:30:00Z,30.3085,-88.1395,24.8,11111222 
DISL,ioos:station:DISL:CATA:1,2018-07-01T08:40:00Z,30.3085,-88.1395,25.28,1111122 
DISL,ioos:station:DISL:CATA:1,2018-07-01T09:00:00Z,30.3085,-88.1395,25.3,11111222 
DISL,ioos:station:DISL:CATA:1,2018-07-01T09:30:00Z,30.3085,-88.1395,24.6,11111222 
DISL,ioos:station:DISL:CATA:1,2018-07-01T09:40:00Z,30.3085,-88.1395,24.56,1111122 
DISL,ioos:station:DISL:CATA:1,2018-07-01T10:00:00Z,30.3085,-88.1395,24.6,11111222 
DISL,ioos:station:DISL:CATA:1,2018-07-01T10:30:00Z,30.3085,-88.1395,24.2,11111222 
DISL,ioos:station:DISL:CATA:1,2018-07-01T10:40:00Z,30.3085,-88.1395,24.02,1111122 
DISL,ioos:station:DISL:CATA:1,2018-07-01T11:00:00Z,30.3085,-88.1395,24.5,11111222 
DISL,ioos:station:DISL:CATA:1,2018-07-01T11:30:00Z,30.3085,-88.1395,24.5,11111222 
DISL,ioos:station:DISL:CATA:1,2018-07-01T11:40:00Z,30.3085,-88.1395,24.29,1111122 
DISL,ioos:station:DISL:CATA:1,2018-07-01T12:00:00Z,30.3085,-88.1395,25.1,11111222 
DISL,ioos:station:DISL:CATA:1,2018-07-01T12:30:00Z,30.3085,-88.1395,26.2,11111222 
DISL,ioos:station:DISL:CATA:1,2018-07-01T12:40:00Z,30.3085,-88.1395,26.21,1111122 
DISL,ioos:station:DISL:CATA:1,2018-07-01T13:00:00Z,30.3085,-88.1395,26.7,11111222 
DISL,ioos:station:DISL:CATA:1,2018-07-01T13:30:00Z,30.3085,-88.1395,26.7,11111222 
DISL,ioos:station:DISL:CATA:1,2018-07-01T13:40:00Z,30.3085,-88.1395,26.94,1111122 
DISL,ioos:station:DISL:CATA:1,2018-07-01T14:00:00Z,30.3085,-88.1395,26.9,11111222 
DISL,ioos:station:DISL:CATA:1,2018-07-01T14:30:00Z,30.3085,-88.1395,27.2,11111222 
DISL,ioos:station:DISL:CATA:1,2018-07-01T14:40:00Z,30.3085,-88.1395,27.32,1111122 
DISL,ioos:station:DISL:CATA:1,2018-07-01T15:00:00Z,30.3085,-88.1395,27.4,11111222 
DISL,ioos:station:DISL:CATA:1,2018-07-01T15:30:00Z,30.3085,-88.1395,27.6,11111222 
DISL,ioos:station:DISL:CATA:1,2018-07-01T15:40:00Z,30.3085,-88.1395,27.79,1111122 
DISL,ioos:station:DISL:CATA:1,2018-07-01T16:00:00Z,30.3085,-88.1395,29.0,11111222 
DISL,ioos:station:DISL:CATA:1,2018-07-01T16:30:00Z,30.3085,-88.1395,28.3,11111222 
DISL,ioos:station:DISL:CATA:1,2018-07-01T16:40:00Z,30.3085,-88.1395,28.73,1111122 
DISL,ioos:station:DISL:CATA:1,2018-07-01T17:00:00Z,30.3085,-88.1395,28.6,11111222 
DISL,ioos:station:DISL:CATA:1,2018-07-01T17:30:00Z,30.3085,-88.1395,30.1,11111222 
DISL,ioos:station:DISL:CATA:1,2018-07-01T17:40:00Z,30.3085,-88.1395,29.83,1111122 
DISL,ioos:station:DISL:CATA:1,2018-07-01T18:00:00Z,30.3085,-88.1395,29.8,11111222 
DISL,ioos:station:DISL:CATA:1,2018-07-01T18:30:00Z,30.3085,-88.1395,29.6,11111222 
DISL,ioos:station:DISL:CATA:1,2018-07-01T18:40:00Z,30.3085,-88.1395,29.73,1111122 
DISL,ioos:station:DISL:CATA:1,2018-07-01T19:00:00Z,30.3085,-88.1395,29.8,11111222 
DISL,ioos:station:DISL:CATA:1,2018-07-01T19:30:00Z,30.3085,-88.1395,29.3,11111222 
DISL,ioos:station:DISL:CATA:1,2018-07-01T19:40:00Z,30.3085,-88.1395,29.01,1111122 
DISL,ioos:station:DISL:CATA:1,2018-07-01T20:00:00Z,30.3085,-88.1395,29.2,11111222 
DISL,ioos:station:DISL:CATA:1,2018-07-01T20:30:00Z,30.3085,-88.1395,29.0,11111222 
DISL,ioos:station:DISL:CATA:1,2018-07-01T20:40:00Z,30.3085,-88.1395,29.01,1111122 
DISL,ioos:station:DISL:CATA:1,2018-07-01T21:00:00Z,30.3085,-88.1395,29.0,11111222 
DISL,ioos:station:DISL:CATA:1,2018-07-01T21:30:00Z,30.3085,-88.1395,29.0,11111222 
DISL,ioos:station:DISL:CATA:1,2018-07-01T21:40:00Z,30.3085,-88.1395,29.11,1111122 
DISL,ioos:station:DISL:CATA:1,2018-07-01T22:00:00Z,30.3085,-88.1395,29.0,11111222 
DISL,ioos:station:DISL:CATA:1,2018-07-01T22:30:00Z,30.3085,-88.1395,27.5,11111222 
DISL,ioos:station:DISL:CATA:1,2018-07-01T22:40:00Z,30.3085,-88.1395,26.22,1111122 
DISL,ioos:station:DISL:CATA:1,2018-07-01T23:30:00Z,30.3085,-88.1395,23.0,11111222 
DISL,ioos:station:DISL:CATA:1,2018-07-01T23:40:00Z,30.3085,-88.1395,23.3,1111122 
DISL,ioos:station:DISL:CATA:1,2018-07-02T00:00:00Z,30.3085,-88.1395,24.0,11111222 
DISL,ioos:station:DISL:CATA:1,2018-07-02T00:30:00Z,30.3085,-88.1395,25.8,11111222 
DISL,ioos:station:DISL:CATA:1,2018-07-02T00:40:00Z,30.3085,-88.1395,25.94,1111122 
DISL,ioos:station:DISL:CATA:1,2018-07-02T01:00:00Z,30.3085,-88.1395,26.1,11111222 
DISL,ioos:station:DISL:CATA:1,2018-07-02T01:30:00Z,30.3085,-88.1395,26.5,11111222 
DISL,ioos:station:DISL:CATA:1,2018-07-02T01:40:00Z,30.3085,-88.1395,26.62,1111122 
DISL,ioos:station:DISL:CATA:1,2018-07-02T02:00:00Z,30.3085,-88.1395,27.0,11111222 
DISL,ioos:station:DISL:CATA:1,2018-07-02T02:30:00Z,30.3085,-88.1395,26.6,11111222 
DISL,ioos:station:DISL:CATA:1,2018-07-02T02:40:00Z,30.3085,-88.1395,26.62,1111122 
DISL,ioos:station:DISL:CATA:1,2018-07-02T03:00:00Z,30.3085,-88.1395,26.7,11111222 
DISL,ioos:station:DISL:CATA:1,2018-07-02T03:30:00Z,30.3085,-88.1395,26.8,11111222 
DISL,ioos:station:DISL:CATA:1,2018-07-02T03:40:00Z,30.3085,-88.1395,26.89,1111122 
DISL,ioos:station:DISL:CATA:1,2018-07-02T04:00:00Z,30.3085,-88.1395,26.9,11111222 
DISL,ioos:station:DISL:CATA:1,2018-07-02T04:30:00Z,30.3085,-88.1395,27.3,11111222 
DISL,ioos:station:DISL:CATA:1,2018-07-02T04:40:00Z,30.3085,-88.1395,27.36,1111122 
DISL,ioos:station:DISL:CATA:1,2018-07-02T05:00:00Z,30.3085,-88.1395,27.4,11111222 
DISL,ioos:station:DISL:CATA:1,2018-07-02T05:30:00Z,30.3085,-88.1395,27.3,11111222 
DISL,ioos:station:DISL:CATA:1,2018-07-02T05:40:00Z,30.3085,-88.1395,27.29,1111122 
DISL,ioos:station:DISL:CATA:1,2018-07-02T06:30:00Z,30.3085,-88.1395,25.9,11111222 
DISL,ioos:station:DISL:CATA:1,2018-07-02T06:40:00Z,30.3085,-88.1395,25.38,1111122 
DISL,ioos:station:DISL:CATA:1,2018-07-02T07:00:00Z,30.3085,-88.1395,25.4,11111222 
DISL,ioos:station:DISL:CATA:1,2018-07-02T07:30:00Z,30.3085,-88.1395,25.0,11111222 
DISL,ioos:station:DISL:CATA:1,2018-07-02T07:40:00Z,30.3085,-88.1395,25.07,1111122 
DISL,ioos:station:DISL:CATA:1,2018-07-02T08:00:00Z,30.3085,-88.1395,25.0,11111222 
DISL,ioos:station:DISL:CATA:1,2018-07-02T08:30:00Z,30.3085,-88.1395,25.2,11111222 
DISL,ioos:station:DISL:CATA:1,2018-07-02T08:40:00Z,30.3085,-88.1395,25.25,1111122 
DISL,ioos:station:DISL:CATA:1,2018-07-02T09:00:00Z,30.3085,-88.1395,25.1,11111222 
DISL,ioos:station:DISL:CATA:1,2018-07-02T09:30:00Z,30.3085,-88.1395,25.3,11111222 
DISL,ioos:station:DISL:CATA:1,2018-07-02T09:40:00Z,30.3085,-88.1395,25.22,1111122 
DISL,ioos:station:DISL:CATA:1,2018-07-02T10:00:00Z,30.3085,-88.1395,25.8,11111222 
DISL,ioos:station:DISL:CATA:1,2018-07-02T10:30:00Z,30.3085,-88.1395,24.8,11111222 
DISL,ioos:station:DISL:CATA:1,2018-07-02T10:40:00Z,30.3085,-88.1395,24.84,1111122 
DISL,ioos:station:DISL:CATA:1,2018-07-02T11:00:00Z,30.3085,-88.1395,25.3,11111222 
DISL,ioos:station:DISL:CATA:1,2018-07-02T11:30:00Z,30.3085,-88.1395,25.3,11111222 
DISL,ioos:station:DISL:CATA:1,2018-07-02T11:40:00Z,30.3085,-88.1395,25.7,1111122 
DISL,ioos:station:DISL:CATA:1,2018-07-02T12:00:00Z,30.3085,-88.1395,25.7,11111222 
DISL,ioos:station:DISL:CATA:1,2018-07-02T12:30:00Z,30.3085,-88.1395,25.7,11111222 
DISL,ioos:station:DISL:CATA:1,2018-07-02T12:40:00Z,30.3085,-88.1395,25.52,1111122 
DISL,ioos:station:DISL:CATA:1,2018-07-02T13:00:00Z,30.3085,-88.1395,25.6,11111222 
DISL,ioos:station:DISL:CATA:1,2018-07-02T13:30:00Z,30.3085,-88.1395,25.6,11111222 
DISL,ioos:station:DISL:CATA:1,2018-07-02T13:40:00Z,30.3085,-88.1395,25.93,1111122 
DISL,ioos:station:DISL:CATA:1,2018-07-02T14:00:00Z,30.3085,-88.1395,26.3,11111222 
DISL,ioos:station:DISL:CATA:1,2018-07-02T14:30:00Z,30.3085,-88.1395,26.4,11111222 
DISL,ioos:station:DISL:CATA:1,2018-07-02T14:40:00Z,30.3085,-88.1395,26.58,1111122 
DISL,ioos:station:DISL:CATA:1,2018-07-02T15:00:00Z,30.3085,-88.1395,26.4,11111222 
DISL,ioos:station:DISL:CATA:1,2018-07-02T15:30:00Z,30.3085,-88.1395,25.6,11111222 
DISL,ioos:station:DISL:CATA:1,2018-07-02T15:40:00Z,30.3085,-88.1395,25.72,1111122 
DISL,ioos:station:DISL:CATA:1,2018-07-02T16:00:00Z,30.3085,-88.1395,25.7,11111222 
DISL,ioos:station:DISL:CATA:1,2018-07-02T16:30:00Z,30.3085,-88.1395,25.7,11111222 
DISL,ioos:station:DISL:CATA:1,2018-07-02T16:40:00Z,30.3085,-88.1395,25.8,1111122 
DISL,ioos:station:DISL:CATA:1,2018-07-02T17:00:00Z,30.3085,-88.1395,25.9,11111222 
DISL,ioos:station:DISL:CATA:1,2018-07-02T17:30:00Z,30.3085,-88.1395,25.9,11111222 
DISL,ioos:station:DISL:CATA:1,2018-07-02T17:40:00Z,30.3085,-88.1395,26.03,1111122 
DISL,ioos:station:DISL:CATA:1,2018-07-02T18:00:00Z,30.3085,-88.1395,26.6,11111222 
DISL,ioos:station:DISL:CATA:1,2018-07-02T18:30:00Z,30.3085,-88.1395,27.1,11111222 
DISL,ioos:station:DISL:CATA:1,2018-07-02T18:40:00Z,30.3085,-88.1395,27.19,1111122 
DISL,ioos:station:DISL:CATA:1,2018-07-02T19:00:00Z,30.3085,-88.1395,27.3,11111222 
DISL,ioos:station:DISL:CATA:1,2018-07-02T19:30:00Z,30.3085,-88.1395,27.4,11111222 
DISL,ioos:station:DISL:CATA:1,2018-07-02T19:40:00Z,30.3085,-88.1395,27.39,1111122 
DISL,ioos:station:DISL:CATA:1,2018-07-02T20:00:00Z,30.3085,-88.1395,27.0,11111222 
DISL,ioos:station:DISL:CATA:1,2018-07-02T20:30:00Z,30.3085,-88.1395,26.4,11111222 
DISL,ioos:station:DISL:CATA:1,2018-07-02T20:40:00Z,30.3085,-88.1395,25.81,1111122 
DISL,ioos:station:DISL:CATA:1,2018-07-02T21:00:00Z,30.3085,-88.1395,25.0,11111222 
DISL,ioos:station:DISL:CATA:1,2018-07-02T21:30:00Z,30.3085,-88.1395,25.3,11111222 
DISL,ioos:station:DISL:CATA:1,2018-07-02T21:40:00Z,30.3085,-88.1395,25.59,1111122 
DISL,ioos:station:DISL:CATA:1,2018-07-02T22:00:00Z,30.3085,-88.1395,26.0,11111222 
DISL,ioos:station:DISL:CATA:1,2018-07-02T22:30:00Z,30.3085,-88.1395,24.6,11111222 
DISL,ioos:station:DISL:CATA:1,2018-07-02T22:40:00Z,30.3085,-88.1395,24.39,1111122 
DISL,ioos:station:DISL:CATA:1,2018-07-02T23:00:00Z,30.3085,-88.1395,24.6,11111222 
DISL,ioos:station:DISL:CATA:1,2018-07-02T23:30:00Z,30.3085,-88.1395,24.6,11111222 
DISL,ioos:station:DISL:CATA:1,2018-07-02T23:40:00Z,30.3085,-88.1395,24.7,1111122 
DISL,ioos:station:DISL:CATA:1,2018-07-03T00:00:00Z,30.3085,-88.1395,24.6,11111222 
DISL,ioos:station:DISL:CATA:1,2018-07-03T00:30:00Z,30.3085,-88.1395,24.5,11111222 
DISL,ioos:station:DISL:CATA:1,2018-07-03T00:40:00Z,30.3085,-88.1395,24.29,1111122 
DISL,ioos:station:DISL:CATA:1,2018-07-03T01:00:00Z,30.3085,-88.1395,24.3,11111222 
DISL,ioos:station:DISL:CATA:1,2018-07-03T01:30:00Z,30.3085,-88.1395,24.2,11111222 
DISL,ioos:station:DISL:CATA:1,2018-07-03T01:40:00Z,30.3085,-88.1395,24.22,1111122 
DISL,ioos:station:DISL:CATA:1,2018-07-03T02:00:00Z,30.3085,-88.1395,24.1,11111222 
DISL,ioos:station:DISL:CATA:1,2018-07-03T02:30:00Z,30.3085,-88.1395,24.6,11111222 
DISL,ioos:station:DISL:CATA:1,2018-07-03T02:40:00Z,30.3085,-88.1395,24.56,1111122 
DISL,ioos:station:DISL:CATA:1,2018-07-03T03:00:00Z,30.3085,-88.1395,24.5,11111222 
DISL,ioos:station:DISL:CATA:1,2018-07-03T03:30:00Z,30.3085,-88.1395,24.5,11111222 
DISL,ioos:station:DISL:CATA:1,2018-07-03T03:40:00Z,30.3085,-88.1395,24.43,1111122 
DISL,ioos:station:DISL:CATA:1,2018-07-03T04:00:00Z,30.3085,-88.1395,24.4,11111222 
DISL,ioos:station:DISL:CATA:1,2018-07-03T04:30:00Z,30.3085,-88.1395,24.8,11111222 
DISL,ioos:station:DISL:CATA:1,2018-07-03T04:40:00Z,30.3085,-88.1395,26.28,1111122 
DISL,ioos:station:DISL:CATA:1,2018-07-03T05:00:00Z,30.3085,-88.1395,26.8,11111222 
DISL,ioos:station:DISL:CATA:1,2018-07-03T05:30:00Z,30.3085,-88.1395,26.9,11111222 
DISL,ioos:station:DISL:CATA:1,2018-07-03T05:40:00Z,30.3085,-88.1395,26.89,1111122 
DISL,ioos:station:DISL:CATA:1,2018-07-03T06:30:00Z,30.3085,-88.1395,27.2,11111222 
DISL,ioos:station:DISL:CATA:1,2018-07-03T06:40:00Z,30.3085,-88.1395,27.26,1111122 
DISL,ioos:station:DISL:CATA:1,2018-07-03T07:00:00Z,30.3085,-88.1395,27.2,11111222 
DISL,ioos:station:DISL:CATA:1,2018-07-03T07:30:00Z,30.3085,-88.1395,27.3,11111222 
DISL,ioos:station:DISL:CATA:1,2018-07-03T07:40:00Z,30.3085,-88.1395,27.4,1111122 
DISL,ioos:station:DISL:CATA:1,2018-07-03T08:00:00Z,30.3085,-88.1395,27.4,11111222 
DISL,ioos:station:DISL:CATA:1,2018-07-03T08:30:00Z,30.3085,-88.1395,27.5,11111222 
DISL,ioos:station:DISL:CATA:1,2018-07-03T08:40:00Z,30.3085,-88.1395,27.64,1111122 
DISL,ioos:station:DISL:CATA:1,2018-07-03T09:00:00Z,30.3085,-88.1395,27.5,11111222 
DISL,ioos:station:DISL:CATA:1,2018-07-03T09:30:00Z,30.3085,-88.1395,27.6,11111222 
DISL,ioos:station:DISL:CATA:1,2018-07-03T09:40:00Z,30.3085,-88.1395,27.5,1111122 
DISL,ioos:station:DISL:CATA:1,2018-07-03T10:00:00Z,30.3085,-88.1395,27.6,11111222 
DISL,ioos:station:DISL:CATA:1,2018-07-03T10:30:00Z,30.3085,-88.1395,27.6,11111222 
DISL,ioos:station:DISL:CATA:1,2018-07-03T10:40:00Z,30.3085,-88.1395,27.7,1111122 
DISL,ioos:station:DISL:CATA:1,2018-07-03T11:00:00Z,30.3085,-88.1395,27.7,11111222 
DISL,ioos:station:DISL:CATA:1,2018-07-03T11:30:00Z,30.3085,-88.1395,27.9,11111222 
DISL,ioos:station:DISL:CATA:1,2018-07-03T11:40:00Z,30.3085,-88.1395,27.97,1111122 
DISL,ioos:station:DISL:CATA:1,2018-07-03T12:00:00Z,30.3085,-88.1395,27.9,11111222 
DISL,ioos:station:DISL:CATA:1,2018-07-03T12:30:00Z,30.3085,-88.1395,27.0,11111222 
DISL,ioos:station:DISL:CATA:1,2018-07-03T12:40:00Z,30.3085,-88.1395,24.82,1111122 
DISL,ioos:station:DISL:CATA:1,2018-07-03T13:00:00Z,30.3085,-88.1395,26.1,11111222 
DISL,ioos:station:DISL:CATA:1,2018-07-03T13:30:00Z,30.3085,-88.1395,27.0,11111222 
DISL,ioos:station:DISL:CATA:1,2018-07-03T13:40:00Z,30.3085,-88.1395,27.24,1111122 
DISL,ioos:station:DISL:CATA:1,2018-07-03T14:00:00Z,30.3085,-88.1395,28.1,11111222 
DISL,ioos:station:DISL:CATA:1,2018-07-03T14:30:00Z,30.3085,-88.1395,28.1,11111222 
DISL,ioos:station:DISL:CATA:1,2018-07-03T14:40:00Z,30.3085,-88.1395,27.93,1111122 
DISL,ioos:station:DISL:CATA:1,2018-07-03T15:00:00Z,30.3085,-88.1395,28.4,11111222 
DISL,ioos:station:DISL:CATA:1,2018-07-03T15:30:00Z,30.3085,-88.1395,28.6,11111222 
DISL,ioos:station:DISL:CATA:1,2018-07-03T15:40:00Z,30.3085,-88.1395,28.48,1111122 
DISL,ioos:station:DISL:CATA:1,2018-07-03T16:00:00Z,30.3085,-88.1395,28.6,11111222 
DISL,ioos:station:DISL:CATA:1,2018-07-03T16:30:00Z,30.3085,-88.1395,28.6,11111222 
DISL,ioos:station:DISL:CATA:1,2018-07-03T16:40:00Z,30.3085,-88.1395,28.62,1111122 
DISL,ioos:station:DISL:CATA:1,2018-07-03T17:00:00Z,30.3085,-88.1395,28.6,11111222 
DISL,ioos:station:DISL:CATA:1,2018-07-03T17:30:00Z,30.3085,-88.1395,28.4,11111222 
DISL,ioos:station:DISL:CATA:1,2018-07-03T17:40:00Z,30.3085,-88.1395,28.52,1111122 
DISL,ioos:station:DISL:CATA:1,2018-07-03T18:00:00Z,30.3085,-88.1395,28.8,11111222 
DISL,ioos:station:DISL:CATA:1,2018-07-03T18:30:00Z,30.3085,-88.1395,28.8,11111222 
DISL,ioos:station:DISL:CATA:1,2018-07-03T18:40:00Z,30.3085,-88.1395,28.86,1111122 
DISL,ioos:station:DISL:CATA:1,2018-07-03T19:00:00Z,30.3085,-88.1395,28.9,11111222 
DISL,ioos:station:DISL:CATA:1,2018-07-03T19:30:00Z,30.3085,-88.1395,28.9,11111222 
DISL,ioos:station:DISL:CATA:1,2018-07-03T19:40:00Z,30.3085,-88.1395,28.76,1111122 
DISL,ioos:station:DISL:CATA:1,2018-07-03T20:00:00Z,30.3085,-88.1395,29.1,11111222 
DISL,ioos:station:DISL:CATA:1,2018-07-03T20:30:00Z,30.3085,-88.1395,29.2,11111222 
DISL,ioos:station:DISL:CATA:1,2018-07-03T20:40:00Z,30.3085,-88.1395,29.17,1111122 
DISL,ioos:station:DISL:CATA:1,2018-07-03T21:00:00Z,30.3085,-88.1395,29.0,11111222 
DISL,ioos:station:DISL:CATA:1,2018-07-03T21:30:00Z,30.3085,-88.1395,28.9,11111222 
DISL,ioos:station:DISL:CATA:1,2018-07-03T21:40:00Z,30.3085,-88.1395,28.89,1111122 
DISL,ioos:station:DISL:CATA:1,2018-07-03T22:00:00Z,30.3085,-88.1395,29.0,11111222 
DISL,ioos:station:DISL:CATA:1,2018-07-03T22:30:00Z,30.3085,-88.1395,29.7,11111222 
DISL,ioos:station:DISL:CATA:1,2018-07-03T22:40:00Z,30.3085,-88.1395,29.54,1111122 
DISL,ioos:station:DISL:CATA:1,2018-07-03T23:00:00Z,30.3085,-88.1395,29.1,11111222 
DISL,ioos:station:DISL:CATA:1,2018-07-03T23:30:00Z,30.3085,-88.1395,29.0,11111222 
DISL,ioos:station:DISL:CATA:1,2018-07-03T23:40:00Z,30.3085,-88.1395,28.89,1111122 
DISL,ioos:station:DISL:CATA:1,2018-07-04T00:00:00Z,30.3085,-88.1395,28.8,11111222 
DISL,ioos:station:DISL:CATA:1,2018-07-04T00:30:00Z,30.3085,-88.1395,28.7,11111222 
DISL,ioos:station:DISL:CATA:1,2018-07-04T00:40:00Z,30.3085,-88.1395,28.62,1111122 
DISL,ioos:station:DISL:CATA:1,2018-07-04T01:00:00Z,30.3085,-88.1395,28.5,11111222 
DISL,ioos:station:DISL:CATA:1,2018-07-04T01:30:00Z,30.3085,-88.1395,28.4,11111222 
DISL,ioos:station:DISL:CATA:1,2018-07-04T01:40:00Z,30.3085,-88.1395,28.38,1111122 
DISL,ioos:station:DISL:CATA:1,2018-07-04T02:30:00Z,30.3085,-88.1395,28.3,11111222 
DISL,ioos:station:DISL:CATA:1,2018-07-04T02:40:00Z,30.3085,-88.1395,28.38,1111122 
DISL,ioos:station:DISL:CATA:1,2018-07-04T03:00:00Z,30.3085,-88.1395,28.4,11111222 
DISL,ioos:station:DISL:CATA:1,2018-07-04T03:30:00Z,30.3085,-88.1395,28.4,11111222 
DISL,ioos:station:DISL:CATA:1,2018-07-04T03:40:00Z,30.3085,-88.1395,28.45,1111122 
DISL,ioos:station:DISL:CATA:1,2018-07-04T04:00:00Z,30.3085,-88.1395,28.3,11111222 
DISL,ioos:station:DISL:CATA:1,2018-07-04T04:30:00Z,30.3085,-88.1395,28.2,11111222 
DISL,ioos:station:DISL:CATA:1,2018-07-04T04:40:00Z,30.3085,-88.1395,28.24,1111122 
DISL,ioos:station:DISL:CATA:1,2018-07-04T05:00:00Z,30.3085,-88.1395,28.3,11111222 
DISL,ioos:station:DISL:CATA:1,2018-07-04T05:30:00Z,30.3085,-88.1395,28.2,11111222 
DISL,ioos:station:DISL:CATA:1,2018-07-04T05:40:00Z,30.3085,-88.1395,28.35,1111122 
DISL,ioos:station:DISL:CATA:1,2018-07-04T06:30:00Z,30.3085,-88.1395,28.1,11111222 
DISL,ioos:station:DISL:CATA:1,2018-07-04T06:40:00Z,30.3085,-88.1395,27.87,1111122 
DISL,ioos:station:DISL:CATA:1,2018-07-04T07:00:00Z,30.3085,-88.1395,27.8,11111222 
DISL,ioos:station:DISL:CATA:1,2018-07-04T07:30:00Z,30.3085,-88.1395,27.8,11111222 
DISL,ioos:station:DISL:CATA:1,2018-07-04T07:40:00Z,30.3085,-88.1395,27.9,1111122 
DISL,ioos:station:DISL:CATA:1,2018-07-04T08:00:00Z,30.3085,-88.1395,28.0,11111222 
DISL,ioos:station:DISL:CATA:1,2018-07-04T08:30:00Z,30.3085,-88.1395,27.9,11111222 
DISL,ioos:station:DISL:CATA:1,2018-07-04T08:40:00Z,30.3085,-88.1395,27.87,1111122 
DISL,ioos:station:DISL:CATA:1,2018-07-04T09:00:00Z,30.3085,-88.1395,27.7,11111222 
DISL,ioos:station:DISL:CATA:1,2018-07-04T09:30:00Z,30.3085,-88.1395,27.7,11111222 
DISL,ioos:station:DISL:CATA:1,2018-07-04T09:40:00Z,30.3085,-88.1395,27.66,1111122 
DISL,ioos:station:DISL:CATA:1,2018-07-04T10:00:00Z,30.3085,-88.1395,27.6,11111222 
DISL,ioos:station:DISL:CATA:1,2018-07-04T10:30:00Z,30.3085,-88.1395,27.3,11111222 
DISL,ioos:station:DISL:CATA:1,2018-07-04T10:40:00Z,30.3085,-88.1395,27.36,1111122 
DISL,ioos:station:DISL:CATA:1,2018-07-04T11:00:00Z,30.3085,-88.1395,27.4,11111222 
DISL,ioos:station:DISL:CATA:1,2018-07-04T11:30:00Z,30.3085,-88.1395,27.5,11111222 
DISL,ioos:station:DISL:CATA:1,2018-07-04T11:40:00Z,30.3085,-88.1395,27.6,1111122 
DISL,ioos:station:DISL:CATA:1,2018-07-04T12:00:00Z,30.3085,-88.1395,28.1,11111222 
DISL,ioos:station:DISL:CATA:1,2018-07-04T12:30:00Z,30.3085,-88.1395,28.0,11111222 
DISL,ioos:station:DISL:CATA:1,2018-07-04T12:40:00Z,30.3085,-88.1395,27.97,1111122 
DISL,ioos:station:DISL:CATA:1,2018-07-04T13:00:00Z,30.3085,-88.1395,28.0,11111222 
DISL,ioos:station:DISL:CATA:1,2018-07-04T13:30:00Z,30.3085,-88.1395,27.7,11111222 
DISL,ioos:station:DISL:CATA:1,2018-07-04T13:40:00Z,30.3085,-88.1395,27.9,1111122 
DISL,ioos:station:DISL:CATA:1,2018-07-04T14:00:00Z,30.3085,-88.1395,27.8,11111222 
DISL,ioos:station:DISL:CATA:1,2018-07-04T14:30:00Z,30.3085,-88.1395,28.1,11111222 
DISL,ioos:station:DISL:CATA:1,2018-07-04T14:40:00Z,30.3085,-88.1395,27.92,1111122 
DISL,ioos:station:DISL:CATA:1,2018-07-04T15:00:00Z,30.3085,-88.1395,28.0,11111222 
DISL,ioos:station:DISL:CATA:1,2018-07-04T15:30:00Z,30.3085,-88.1395,28.4,11111222 
DISL,ioos:station:DISL:CATA:1,2018-07-04T15:40:00Z,30.3085,-88.1395,28.36,1111122 
DISL,ioos:station:DISL:CATA:1,2018-07-04T16:00:00Z,30.3085,-88.1395,28.3,11111222 
DISL,ioos:station:DISL:CATA:1,2018-07-04T16:30:00Z,30.3085,-88.1395,28.6,11111222 
DISL,ioos:station:DISL:CATA:1,2018-07-04T16:40:00Z,30.3085,-88.1395,28.77,1111122 
DISL,ioos:station:DISL:CATA:1,2018-07-04T17:00:00Z,30.3085,-88.1395,28.9,11111222 
DISL,ioos:station:DISL:CATA:1,2018-07-04T17:30:00Z,30.3085,-88.1395,29.0,11111222 
DISL,ioos:station:DISL:CATA:1,2018-07-04T17:40:00Z,30.3085,-88.1395,29.08,1111122 
DISL,ioos:station:DISL:CATA:1,2018-07-04T18:00:00Z,30.3085,-88.1395,29.6,11111222 
DISL,ioos:station:DISL:CATA:1,2018-07-04T18:30:00Z,30.3085,-88.1395,30.0,11111222 
DISL,ioos:station:DISL:CATA:1,2018-07-04T18:40:00Z,30.3085,-88.1395,30.27,1111122 
DISL,ioos:station:DISL:CATA:1,2018-07-04T19:00:00Z,30.3085,-88.1395,30.1,11111222 
DISL,ioos:station:DISL:CATA:1,2018-07-04T19:30:00Z,30.3085,-88.1395,29.0,11111222 
DISL,ioos:station:DISL:CATA:1,2018-07-04T19:40:00Z,30.3085,-88.1395,29.14,1111122 
DISL,ioos:station:DISL:CATA:1,2018-07-04T20:00:00Z,30.3085,-88.1395,29.0,11111222 
DISL,ioos:station:DISL:CATA:1,2018-07-04T20:30:00Z,30.3085,-88.1395,29.1,11111222 
DISL,ioos:station:DISL:CATA:1,2018-07-04T20:40:00Z,30.3085,-88.1395,29.75,1111122 
DISL,ioos:station:DISL:CATA:1,2018-07-04T21:00:00Z,30.3085,-88.1395,29.2,11111222 
DISL,ioos:station:DISL:CATA:1,2018-07-04T21:30:00Z,30.3085,-88.1395,29.2,11111222 
DISL,ioos:station:DISL:CATA:1,2018-07-04T21:40:00Z,30.3085,-88.1395,29.17,1111122 
DISL,ioos:station:DISL:CATA:1,2018-07-04T22:00:00Z,30.3085,-88.1395,29.3,11111222 
DISL,ioos:station:DISL:CATA:1,2018-07-04T22:30:00Z,30.3085,-88.1395,29.0,11111222 
DISL,ioos:station:DISL:CATA:1,2018-07-04T22:40:00Z,30.3085,-88.1395,29.1,1111122 
DISL,ioos:station:DISL:CATA:1,2018-07-04T23:00:00Z,30.3085,-88.1395,29.7,11111222 
DISL,ioos:station:DISL:CATA:1,2018-07-04T23:30:00Z,30.3085,-88.1395,31.2,11111222 
DISL,ioos:station:DISL:CATA:1,2018-07-04T23:40:00Z,30.3085,-88.1395,31.33,1111122 
DISL,ioos:station:DISL:CATA:1,2018-07-05T00:00:00Z,30.3085,-88.1395,29.7,11111222 
DISL,ioos:station:DISL:CATA:1,2018-07-05T00:30:00Z,30.3085,-88.1395,29.2,11111222 
DISL,ioos:station:DISL:CATA:1,2018-07-05T00:40:00Z,30.3085,-88.1395,29.2,1111122 
DISL,ioos:station:DISL:CATA:1,2018-07-05T01:00:00Z,30.3085,-88.1395,29.0,11111222 
DISL,ioos:station:DISL:CATA:1,2018-07-05T01:30:00Z,30.3085,-88.1395,28.9,11111222 
DISL,ioos:station:DISL:CATA:1,2018-07-05T01:40:00Z,30.3085,-88.1395,28.93,1111122 